Lid_Strength_Index
3 3 3 3 3 3 3 3 2 2 2 1 2 2 1 1 1 4 8 5 3 -1 -2 4 3 4 7 9 9 11 15 17 14 13 12 9 10 7 4 5 5 5 5 4 2
3 3 3 3 3 3 3 2 2 2 1 1 1 1 1 1 4 7 3 -1 -2 -3 3 6 7 6 9 10 9 12 15 14 12 11 10 10 10 11 6 6 7 6 4 3 3
3 3 3 3 3 3 3 3 2 2 1 1 1 1 1 2 7 7 -2 -1 -2 -2 2 5 6 7 10 11 11 12 12 11 10 9 9 9 8 10 8 8 7 7 5 4 4
4 3 3 3 3 3 3 3 2 1 1 1 1 1 1 4 14 5 -2 -1 -2 0 3 6 7 10 11 12 11 13 10 10 9 9 9 9 8 9 8 5 4 4 4 4 4
4 4 4 3 3 3 3 3 2 2 1 1 1 1 3 8 9 5 -4 -1 0 2 5 6 8 9 11 11 11 12 10 9 9 9 10 8 7 10 10 4 4 4 4 4 4
4 4 4 3 3 2 2 2 3 2 2 1 1 1 6 11 6 4 2 1 2 4 5 7 8 8 10 10 11 10 10 9 9 10 9 10 9 9 9 5 5 4 5 4 4
4 4 4 3 3 3 2 2 3 3 2 1 0 1 6 9 5 5 3 5 5 5 6 6 6 8 9 10 9 9 12 10 9 11 10 9 10 10 8 4 6 6 5 6 5
5 5 4 3 3 3 2 3 3 2 2 1 -0 3 8 4 4 5 5 4 4 4 5 6 7 8 10 9 9 11 13 15 11 10 10 10 12 7 7 5 6 7 6 6 6
5 5 4 3 3 3 3 3 2 2 0 -0 3 5 9 2 3 3 4 5 4 4 6 4 7 9 9 11 13 14 15 15 12 10 9 10 13 9 7 5 6 6 6 6 8
5 5 4 3 3 3 3 3 1 1 1 1 3 8 6 5 3 2 4 4 6 6 7 8 10 11 13 14 15 15 15 14 14 11 10 11 13 11 9 6 6 6 7 7 6
5 5 4 3 3 3 4 6 8 8 6 6 6 6 5 2 2 4 4 5 6 7 11 9 12 14 13 12 11 12 12 13 12 10 10 10 11 10 9 9 8 10 7 7 7
5 4 4 3 3 3 5 7 8 6 9 5 4 4 3 3 5 3 5 8 8 11 10 11 13 11 10 10 11 12 13 13 11 10 10 11 11 9 9 9 9 9 9 8 9
5 5 4 4 3 5 6 7 6 5 9 6 5 5 5 4 6 5 5 7 9 11 11 13 11 8 9 10 11 12 13 13 12 10 10 11 12 10 9 8 7 7 7 7 7
5 5 4 4 6 7 8 6 6 5 11 9 7 6 5 6 7 4 4 6 9 10 10 10 9 9 9 10 10 12 9 10 10 12 14 11 16 13 10 8 8 7 7 6 7
5 4 4 4 8 7 5 7 6 5 16 7 7 5 6 6 6 6 4 7 9 9 9 10 9 9 10 10 9 11 8 10 10 13 15 14 16 14 12 11 9 8 8 7 6
5 5 4 5 7 5 5 6 6 11 17 9 7 8 8 7 6 5 6 6 7 10 9 9 7 7 8 8 8 8 10 12 13 14 17 13 15 15 14 11 10 9 7 7 6
5 5 5 4 8 5 7 7 12 16 8 11 10 9 9 10 8 7 8 10 11 13 13 11 9 8 6 9 8 10 14 17 18 18 17 13 15 15 11 10 9 9 8 7 6
5 5 4 3 5 6 7 10 16 11 11 9 10 9 11 10 10 9 9 10 9 10 12 14 14 10 7 9 11 12 13 17 19 19 16 12 15 12 9 9 8 8 7 6 7
6 7 6 5 6 7 9 14 15 12 10 10 10 12 13 12 12 11 12 11 11 10 14 14 14 8 7 8 9 11 14 12 15 15 17 15 12 10 9 8 8 8 7 7 8
9 8 7 6 7 7 11 12 12 10 10 10 13 11 13 13 14 14 12 11 12 10 9 13 15 9 8 7 8 11 10 14 16 19 20 16 14 13 11 9 9 8 9 8 8
9 9 7 5 6 9 15 14 11 9 9 11 12 12 13 14 13 13 12 11 11 11 10 12 14 13 9 11 12 12 13 12 13 15 17 19 15 11 11 9 9 9 9 8 8
11 12 7 7 12 13 15 12 9 10 9 10 10 11 12 12 13 12 13 12 10 9 13 13 15 16 14 10 9 10 13 12 17 17 15 16 15 9 8 8 8 8 8 8 8
12 11 7 8 15 15 12 10 9 10 11 11 12 11 11 14 16 13 13 9 10 10 11 12 14 19 16 13 12 14 13 13 13 13 16 19 16 8 8 9 8 8 7 7 6
11 14 12 11 12 13 13 12 12 9 10 10 11 11 13 14 13 14 13 10 9 10 7 10 14 15 18 17 15 17 15 14 14 17 16 15 13 11 10 9 9 9 6 6 6
11 13 12 15 13 12 13 12 12 12 11 11 12 12 13 16 14 14 12 11 10 8 10 12 16 14 14 13 15 16 16 15 16 14 16 14 14 11 9 9 9 8 7 6 6
12 13 11 12 11 12 12 13 12 11 12 13 13 11 11 15 13 13 12 12 12 10 12 11 16 14 15 13 14 16 16 16 15 13 14 14 13 9 9 7 8 8 8 9 6
10 9 11 12 13 13 13 12 11 11 10 9 10 11 11 10 8 9 10 10 10 12 13 14 14 16 18 14 14 18 16 14 15 14 13 15 14 11 11 8 8 8 9 9 7